RH
40 47 50 55 52 48 52 54 40 30 26 29 36 47 39 44 52 42 37 21 7 4 3 2 2 2 2 1 1 1 1 1 1 1 1 1 1 2 2 2 2 3 3 3 4
35 49 56 68 57 55 49 45 37 31 26 25 32 49 44 43 48 35 26 18 7 3 3 2 1 1 1 1 1 1 1 1 1 1 1 1 2 1 2 2 2 3 4 3 3
33 51 63 66 62 59 58 46 44 34 28 30 33 50 42 44 48 39 20 12 9 3 2 2 1 1 1 1 1 1 1 1 1 1 1 1 1 2 2 2 2 3 3 3 2
37 52 69 70 68 64 58 48 41 36 25 27 30 55 51 45 47 40 20 8 6 3 2 2 1 1 1 1 1 1 1 1 1 1 1 1 1 1 2 2 3 4 4 4 3
50 58 85 82 73 68 57 56 42 36 30 33 34 54 62 40 42 30 26 9 5 2 2 1 1 1 1 1 1 1 1 1 1 1 1 1 1 1 1 2 2 3 4 4 3
52 53 97 80 82 72 60 61 43 41 36 27 35 51 50 48 47 34 30 13 6 2 2 2 1 1 1 1 1 1 1 1 1 1 1 1 1 1 1 1 2 2 3 3 3
65 68 89 81 86 82 65 60 47 41 40 28 36 41 44 50 51 35 23 14 5 2 2 2 2 2 2 1 1 1 1 1 1 1 1 1 1 2 2 2 2 2 3 3 3
74 81 99 79 98 96 75 58 56 41 44 33 39 40 48 51 57 44 22 9 6 3 2 2 2 2 2 1 1 1 1 1 1 1 1 2 2 2 2 2 3 3 4 3 3
91 91 100 91 96 95 73 66 53 46 48 37 42 42 48 55 62 50 31 16 6 3 2 2 2 2 2 2 1 1 2 2 2 2 2 2 3 3 2 2 3 4 6 6 6
93 88 100 100 88 94 84 65 48 46 48 41 48 50 47 58 75 57 35 17 8 4 2 2 2 2 2 2 2 2 2 2 2 2 2 2 3 3 3 3 4 5 8 10 10
100 100 99 87 77 95 78 66 58 40 50 46 63 48 58 66 72 63 36 27 14 4 2 3 3 3 2 2 2 2 2 2 2 2 2 2 2 3 4 4 5 7 9 12 16
100 100 99 95 61 66 67 62 60 44 52 50 53 42 66 82 82 67 38 24 16 5 3 3 4 3 3 2 3 2 2 2 2 2 2 2 2 4 4 4 6 10 13 15 22
100 100 88 90 59 48 59 64 54 43 50 52 58 62 70 78 81 64 49 30 23 14 4 3 3 3 3 2 4 3 2 2 2 2 2 3 3 4 5 5 11 16 16 22 27
94 82 57 50 55 48 50 59 47 45 59 70 64 83 90 87 70 72 51 32 25 16 5 4 3 3 3 2 4 3 3 3 3 3 3 3 4 4 4 6 18 20 18 23 62
74 57 57 48 53 40 41 56 45 54 62 62 90 84 87 87 73 77 55 28 23 18 6 4 4 4 3 3 4 4 3 3 3 3 3 3 4 4 5 9 22 26 24 31 67
65 65 49 60 42 44 43 62 46 60 71 69 87 98 99 83 73 72 45 24 20 16 6 5 4 4 3 3 4 4 3 3 3 3 4 4 4 5 5 10 23 31 31 48 100
67 60 42 44 43 36 47 48 56 70 75 76 100 98 100 78 80 77 40 27 24 15 7 5 3 4 4 3 5 4 4 4 4 4 4 4 4 5 6 9 24 31 39 47 99
67 51 40 36 42 41 46 53 62 64 85 88 100 100 100 86 84 62 30 23 19 11 8 6 4 4 4 4 5 5 4 4 4 4 4 5 5 5 5 9 26 35 42 33 44
61 40 34 37 44 46 47 57 63 80 93 100 100 100 97 89 82 47 26 23 17 10 8 6 4 4 4 4 5 5 5 4 4 4 5 5 5 6 6 8 21 35 37 51 94
49 41 46 42 44 48 52 58 76 79 97 100 100 100 94 92 62 31 21 16 14 8 8 6 4 4 4 4 5 5 6 5 5 5 6 6 6 6 7 9 18 34 40 55 68
51 48 44 38 38 56 66 69 95 99 100 100 100 100 100 85 51 32 17 14 10 8 9 6 4 4 4 4 6 6 6 6 6 6 6 6 7 6 7 10 17 33 44 57 64
49 50 45 43 46 67 82 68 86 100 100 100 100 100 93 75 49 26 14 10 8 8 7 5 4 5 4 4 6 6 6 7 6 6 6 7 7 8 7 9 17 34 41 49 78
51 53 54 55 68 65 76 84 100 100 100 100 100 98 81 61 37 23 14 11 8 8 7 6 4 5 4 4 6 6 6 6 7 6 7 7 7 9 11 9 13 32 38 46 91
56 53 67 67 67 54 79 100 100 100 100 100 99 81 57 41 31 21 12 10 8 8 6 5 4 4 4 4 7 7 7 7 7 7 6 7 7 8 13 13 12 21 35 49 50
61 56 73 89 88 83 98 100 100 100 100 100 85 62 38 28 21 13 14 8 7 7 6 5 4 4 5 4 6 7 7 7 8 8 7 7 7 8 10 14 17 21 40 58 45
76 62 76 80 75 93 100 100 100 100 100 90 68 44 29 22 18 14 13 8 7 6 5 4 4 5 5 5 6 7 7 7 8 9 8 7 8 9 10 12 20 25 38 47 53
94 82 81 89 94 100 100 100 100 100 88 74 49 34 28 25 20 20 13 9 6 6 4 4 4 5 4 5 6 8 7 8 8 8 9 8 8 9 12 12 16 24 33 47 55
Wind_Speed
51 54 58 62 64 67 67 69 76 83 92 95 99 102 110 113 115 116 115 110 85 65 48 46 51 54 59 60 63 65 64 66 67 70 78 86 87 89 88 88 92 94 89 83 84
59 59 63 61 64 67 69 72 80 83 94 98 104 108 112 115 120 126 122 109 93 67 51 47 51 56 56 60 62 63 66 70 69 70 81 85 87 90 90 91 94 96 98 87 80
62 61 64 65 64 68 70 76 81 86 96 99 106 110 115 120 127 123 124 110 96 72 56 46 47 50 56 57 56 62 66 63 65 67 76 84 81 89 92 90 92 93 95 91 81
62 62 65 67 67 69 73 78 83 90 99 102 108 113 118 123 128 125 124 103 92 70 61 50 47 46 46 48 51 55 60 60 64 65 66 72 73 80 90 90 87 90 96 96 85
62 65 66 69 69 72 77 77 85 91 100 103 111 115 119 125 129 126 128 109 96 77 68 54 47 44 44 41 44 46 50 53 59 63 66 71 70 75 80 88 80 86 95 95 90
67 68 69 72 71 73 77 79 88 92 102 108 112 117 122 128 133 132 134 124 100 84 71 60 54 48 47 41 38 38 42 49 57 63 68 70 72 74 81 82 84 84 90 93 86
68 70 71 76 74 75 80 82 89 96 102 110 112 119 125 129 135 135 130 125 98 91 80 69 59 52 50 42 35 32 33 39 47 56 66 67 72 75 79 83 84 85 87 89 82
65 71 73 77 75 77 82 86 91 99 102 109 113 120 126 131 135 139 131 115 109 94 83 73 65 57 55 42 35 27 25 29 37 50 60 65 74 77 79 80 83 86 88 86 78
66 72 74 77 79 79 85 89 94 97 104 109 116 123 130 134 140 142 140 128 113 100 85 77 70 64 58 43 35 27 20 23 33 45 53 66 74 78 80 77 79 84 86 85 83
71 75 73 77 81 82 85 93 97 99 105 110 118 125 130 133 137 142 144 129 122 107 91 82 72 67 58 44 34 26 19 20 28 39 50 63 73 77 80 80 77 80 82 84 83
71 74 75 79 80 84 89 95 97 100 104 114 117 124 129 137 139 146 147 140 134 112 93 82 76 70 57 44 34 25 18 18 24 37 48 61 71 76 79 78 77 79 81 83 86
74 79 81 81 84 86 91 95 99 102 106 114 119 126 130 134 138 145 147 142 135 121 98 86 83 71 57 44 33 24 17 16 22 34 42 55 67 74 77 75 75 79 83 85 93
77 80 83 84 88 89 92 95 98 101 107 113 119 126 129 132 135 143 149 147 142 134 108 89 77 70 56 42 31 22 15 15 22 31 42 51 60 69 71 71 74 80 84 90 94
77 81 86 87 90 90 92 96 100 104 107 114 122 126 130 133 138 139 150 150 143 136 106 92 74 68 53 40 28 20 13 15 21 29 36 49 57 66 72 69 77 84 85 92 105
80 86 88 89 90 91 93 95 101 105 110 117 122 130 131 134 139 142 146 150 143 136 109 91 75 66 52 39 26 18 12 14 21 26 33 45 57 67 71 73 82 89 90 97 107
85 88 88 90 88 92 95 95 102 106 111 118 123 128 132 137 138 143 146 147 139 131 111 92 80 63 49 37 24 16 11 14 20 24 33 44 59 65 70 75 85 93 94 102 112
86 87 88 88 87 93 93 97 102 106 113 119 123 128 131 136 137 140 140 142 141 133 111 88 74 59 46 35 23 14 11 14 19 26 34 42 54 63 70 79 88 97 102 107 116
84 86 87 89 90 92 94 100 103 109 116 121 127 130 133 134 139 144 143 142 137 124 106 92 74 59 42 32 23 13 11 14 20 26 35 43 53 64 74 82 91 100 105 103 106
84 87 89 91 91 92 97 102 105 111 118 120 125 130 131 135 142 142 143 137 128 114 99 88 69 56 39 31 22 12 12 14 19 25 34 42 49 60 70 80 92 100 102 104 114
88 92 89 91 93 96 99 106 107 114 117 122 125 128 131 135 142 140 140 132 121 108 94 75 66 55 38 28 21 13 11 14 20 27 34 40 48 56 67 77 87 99 105 109 116
90 89 89 94 98 98 102 107 111 115 118 122 124 128 132 140 141 140 137 126 113 100 83 78 65 51 36 26 20 12 11 16 22 30 36 42 46 52 63 73 84 99 106 115 113
89 89 94 95 100 101 105 112 114 117 120 122 124 127 134 140 140 132 133 117 104 91 81 65 61 46 34 22 18 12 11 17 24 32 39 43 46 50 59 71 80 94 103 112 116
94 98 97 99 102 106 109 114 116 118 122 122 128 132 135 136 135 125 122 108 96 84 67 64 57 43 33 21 17 13 12 18 23 31 39 45 49 51 57 65 76 92 101 110 121
96 97 99 101 105 111 112 116 118 119 119 126 130 135 132 133 133 130 113 102 91 81 69 54 51 39 31 21 17 13 13 17 25 31 39 46 50 54 60 65 69 81 96 111 118
98 106 103 106 109 113 116 118 120 118 124 126 131 133 130 128 125 114 104 96 86 74 62 50 50 37 26 22 16 14 14 18 24 30 39 45 50 56 63 65 69 77 99 115 113
104 106 107 112 116 117 117 117 119 124 126 129 130 127 127 123 117 108 96 90 84 73 64 48 45 36 23 21 16 15 15 17 25 31 36 44 50 56 62 65 70 81 96 106 121
107 113 113 115 120 120 116 118 125 126 129 130 129 126 121 113 107 102 97 94 83 68 55 45 40 33 21 20 15 17 17 17 25 32 37 43 50 56 62 66 70 78 93 107 119
Wind_Direction
354 353 355 354 351 353 351 350 350 351 350 351 349 349 350 350 353 350 349 349 348 339 321 298 289 284 280 276 272 266 257 251 243 235 232 233 233 234 230 230 233 231 231 229 229
349 349 347 351 349 349 349 350 351 350 350 352 349 348 348 352 351 351 349 347 352 341 328 308 293 288 282 278 271 264 257 249 244 235 232 232 228 231 232 227 229 231 231 230 228
348 346 345 345 346 346 345 346 348 348 348 350 348 348 349 348 349 350 350 347 347 344 334 321 301 291 284 279 270 264 259 254 249 239 233 230 227 227 228 229 228 229 232 231 228
345 346 343 344 344 346 344 345 346 347 347 348 347 346 346 347 350 350 351 347 347 342 336 330 312 301 291 279 271 261 256 249 247 239 237 235 229 227 228 229 224 225 230 234 230
341 345 341 342 341 343 343 344 345 345 346 347 347 345 344 346 350 350 350 349 348 344 342 333 322 316 306 295 282 267 258 249 242 236 233 233 227 225 226 228 224 222 226 229 231
339 343 340 341 340 341 341 342 343 343 344 345 345 344 342 345 348 350 350 352 348 347 345 339 335 331 322 312 295 276 258 249 239 230 227 226 222 217 218 222 217 218 221 225 225
336 339 338 338 338 340 339 339 342 342 342 344 343 342 341 344 346 348 348 350 348 348 347 345 340 336 331 322 304 282 264 249 239 228 224 222 217 212 214 216 213 212 215 219 219
333 336 336 335 337 336 338 338 340 340 341 342 342 341 342 344 344 346 349 350 351 349 346 347 342 343 335 327 312 290 267 248 233 227 221 214 212 209 211 213 211 209 208 211 211
331 334 334 334 335 335 336 335 337 338 338 341 340 341 341 342 344 346 347 350 351 349 348 350 344 346 338 330 317 298 276 243 229 223 215 210 209 209 208 208 207 206 206 204 204
327 330 333 332 333 332 333 333 335 337 338 339 340 340 340 340 341 344 345 350 354 349 349 350 346 347 340 331 318 300 278 244 226 217 211 206 205 206 205 203 202 202 200 199 199
324 327 329 331 332 329 330 332 333 337 339 339 338 337 338 339 341 343 345 346 350 349 349 352 348 347 341 332 320 301 279 242 220 208 205 203 202 203 202 200 196 196 191 192 194
322 324 326 328 330 328 328 330 333 336 337 337 337 337 337 339 340 341 345 346 348 349 348 349 347 345 342 334 323 301 280 240 212 200 198 201 199 200 198 194 190 189 187 188 192
323 322 324 324 327 328 327 329 332 334 335 335 335 335 335 336 339 340 342 342 344 347 347 347 348 344 341 336 323 301 278 241 211 201 194 192 197 195 195 188 183 185 185 185 188
321 320 321 323 324 326 327 328 330 331 333 333 334 334 335 335 338 341 341 341 343 346 347 347 349 343 341 337 325 300 275 235 213 201 193 187 189 189 191 182 181 185 185 184 185
317 318 319 323 323 325 327 327 327 331 331 333 333 334 334 335 337 339 339 340 340 342 345 346 346 342 340 337 327 302 274 230 216 198 192 185 185 187 186 179 180 186 186 187 185
315 319 320 320 323 324 326 326 327 329 330 332 332 333 333 334 335 337 337 338 339 341 343 343 342 341 339 336 329 302 270 231 217 195 188 185 185 187 182 179 183 187 187 187 181
317 318 319 321 322 323 324 325 325 328 329 330 330 332 331 332 333 335 337 335 335 338 341 344 340 341 337 335 328 299 259 226 211 193 186 185 187 183 181 180 184 187 188 189 185
315 317 319 320 321 323 323 325 326 327 327 329 329 330 330 331 332 333 336 334 334 337 339 342 337 339 337 335 325 301 253 227 210 194 188 184 187 184 182 182 186 188 190 193 191
314 317 319 320 321 322 323 325 326 326 326 326 327 327 328 329 331 333 334 333 333 335 337 340 336 336 337 332 324 298 249 216 211 199 194 186 187 185 183 184 186 191 192 191 184
312 316 316 320 320 320 322 322 323 325 324 324 325 326 326 328 330 332 333 332 332 332 334 338 335 334 334 331 318 304 244 214 200 196 196 191 188 187 184 185 187 191 193 190 188
311 315 317 319 320 318 320 321 321 322 322 323 324 324 325 326 328 331 331 330 329 330 333 334 331 332 331 327 312 305 247 212 195 193 195 196 190 188 186 185 189 191 193 190 191
311 312 315 317 318 317 317 319 320 319 320 321 321 322 324 326 327 329 330 327 329 329 333 332 329 330 327 325 307 291 240 211 198 192 194 194 192 188 188 187 190 192 195 193 192
308 312 313 315 316 317 317 316 316 317 317 319 319 322 325 325 325 327 328 326 328 330 334 330 328 329 322 320 298 285 250 211 201 195 193 194 192 187 189 191 190 192 193 195 191
307 309 310 312 314 317 315 314 314 315 316 317 320 322 325 324 323 324 325 326 327 330 332 327 323 328 319 317 293 276 248 220 198 198 194 193 192 187 192 193 193 191 193 195 197
305 308 309 310 312 313 313 312 313 313 315 318 321 322 324 323 322 325 326 326 328 331 332 327 320 324 317 311 288 265 245 218 204 197 193 194 193 190 192 193 191 190 193 194 197
303 307 306 308 310 310 310 311 310 313 315 317 319 320 322 322 323 324 324 324 327 329 330 326 319 321 314 299 280 262 244 221 206 196 198 192 192 191 191 192 191 189 192 195 196
301 304 305 306 307 308 309 308 311 314 314 317 319 319 321 323 324 325 325 325 326 327 328 321 315 318 308 291 273 253 239 220 209 199 197 193 192 192 192 191 191 192 192 195 197